Precipitable_Water
1.44 1.53 1.59 1.58 1.52 1.42 1.34 1.30 1.27 1.17 1.05 1.02 1.07 1.14 1.19 1.17 1.15 1.13 1.10 1.09 1.16 1.15 1.14 1.14 1.11 1.06 1.06 1.05 1.03 1.04 1.04 1.00 0.95
1.42 1.40 1.46 1.47 1.46 1.41 1.39 1.34 1.34 1.33 1.22 1.06 1.00 1.06 1.16 1.24 1.19 1.15 1.16 1.15 1.23 1.23 1.15 1.16 1.14 1.12 1.09 1.04 1.04 1.04 1.04 1.05 1.01
1.47 1.46 1.45 1.44 1.42 1.37 1.37 1.37 1.36 1.37 1.34 1.26 1.14 1.06 1.06 1.14 1.17 1.19 1.24 1.24 1.27 1.26 1.22 1.13 1.12 1.13 1.13 1.09 1.06 1.07 1.10 1.09 1.06
1.43 1.43 1.45 1.46 1.44 1.41 1.41 1.41 1.43 1.43 1.44 1.40 1.32 1.19 1.10 1.08 1.14 1.14 1.17 1.26 1.30 1.39 1.31 1.23 1.14 1.10 1.11 1.13 1.12 1.10 1.08 1.09 1.10
1.32 1.34 1.33 1.33 1.40 1.42 1.47 1.49 1.50 1.51 1.49 1.47 1.43 1.36 1.25 1.14 1.10 1.18 1.21 1.23 1.28 1.31 1.35 1.30 1.26 1.17 1.08 1.08 1.09 1.10 1.11 1.12 1.10
0.97 1.04 1.15 1.17 1.23 1.28 1.37 1.47 1.51 1.54 1.54 1.53 1.48 1.44 1.39 1.28 1.14 1.11 1.18 1.22 1.25 1.33 1.40 1.30 1.28 1.29 1.20 1.08 1.07 1.09 1.09 1.10 1.11
0.50 0.55 0.73 0.91 0.93 1.04 1.20 1.31 1.42 1.48 1.45 1.45 1.46 1.48 1.47 1.40 1.33 1.24 1.12 1.15 1.23 1.30 1.41 1.46 1.30 1.21 1.20 1.19 1.09 1.08 1.08 1.07 1.08
0.40 0.41 0.44 0.47 0.56 0.65 0.83 1.04 1.25 1.33 1.36 1.36 1.37 1.45 1.48 1.45 1.47 1.45 1.35 1.21 1.16 1.25 1.34 1.43 1.47 1.31 1.22 1.17 1.15 1.11 1.10 1.08 1.09
0.41 0.41 0.43 0.45 0.47 0.48 0.52 0.58 0.72 0.86 0.97 1.16 1.25 1.35 1.37 1.42 1.50 1.52 1.49 1.43 1.35 1.25 1.34 1.36 1.45 1.42 1.34 1.26 1.19 1.16 1.13 1.10 1.09
0.42 0.42 0.43 0.45 0.47 0.47 0.46 0.48 0.52 0.57 0.65 0.76 0.87 1.08 1.20 1.28 1.40 1.49 1.51 1.52 1.46 1.41 1.41 1.40 1.43 1.46 1.40 1.36 1.28 1.25 1.21 1.18 1.14
0.48 0.48 0.49 0.50 0.52 0.53 0.52 0.51 0.51 0.51 0.55 0.58 0.65 0.70 0.80 0.99 1.20 1.30 1.37 1.45 1.52 1.56 1.52 1.49 1.52 1.52 1.48 1.44 1.38 1.32 1.29 1.28 1.24
0.59 0.59 0.59 0.60 0.61 0.60 0.59 0.56 0.56 0.53 0.53 0.52 0.52 0.54 0.57 0.62 0.69 0.86 1.06 1.25 1.40 1.50 1.58 1.54 1.54 1.60 1.59 1.56 1.50 1.41 1.36 1.41 1.39
0.58 0.59 0.60 0.63 0.64 0.63 0.62 0.61 0.59 0.58 0.57 0.56 0.56 0.55 0.54 0.52 0.52 0.57 0.68 0.83 1.09 1.24 1.42 1.56 1.59 1.57 1.58 1.59 1.62 1.58 1.48 1.44 1.50
0.51 0.51 0.53 0.55 0.55 0.55 0.54 0.51 0.51 0.49 0.53 0.56 0.57 0.58 0.60 0.63 0.66 0.60 0.54 0.56 0.63 0.87 1.18 1.34 1.51 1.60 1.63 1.57 1.61 1.65 1.68 1.66 1.54
0.64 0.65 0.64 0.64 0.61 0.61 0.63 0.65 0.65 0.59 0.57 0.55 0.54 0.57 0.58 0.60 0.60 0.63 0.68 0.66 0.60 0.59 0.69 1.08 1.24 1.49 1.58 1.61 1.62 1.61 1.61 1.67 1.71
0.66 0.66 0.67 0.68 0.67 0.67 0.64 0.58 0.52 0.48 0.55 0.51 0.49 0.50 0.55 0.57 0.60 0.65 0.70 0.73 0.78 0.77 0.70 0.73 1.01 1.23 1.33 1.50 1.61 1.60 1.58 1.60 1.61
0.67 0.67 0.68 0.67 0.60 0.58 0.56 0.53 0.48 0.49 0.53 0.44 0.44 0.36 0.41 0.54 0.58 0.67 0.74 0.76 0.79 0.77 0.79 0.85 0.82 0.92 1.16 1.34 1.47 1.63 1.55 1.57 1.58
0.68 0.67 0.63 0.61 0.59 0.55 0.53 0.55 0.53 0.45 0.51 0.52 0.46 0.38 0.37 0.45 0.58 0.61 0.73 0.78 0.82 0.85 0.88 0.89 0.87 0.92 1.01 1.19 1.29 1.39 1.49 1.57 1.54
0.67 0.65 0.63 0.62 0.61 0.58 0.58 0.59 0.55 0.53 0.46 0.51 0.56 0.57 0.55 0.43 0.42 0.64 0.69 0.79 0.81 0.84 0.87 0.91 0.98 1.01 1.00 1.12 1.22 1.30 1.40 1.52 1.55
0.66 0.66 0.65 0.65 0.66 0.65 0.63 0.59 0.55 0.58 0.54 0.53 0.52 0.54 0.57 0.60 0.55 0.51 0.62 0.74 0.83 0.84 0.88 0.88 0.96 1.01 1.06 1.15 1.17 1.20 1.30 1.41 1.48
Wind_Speed
10 10 10 10 10 10 10 10 10 10 10 10 10 11 11 11 11 11 11 11 10 10 10 10 10 10 9 9 9 8 8 7 7
12 13 12 13 13 13 13 13 13 13 13 13 12 12 13 12 13 13 14 14 14 13 13 13 12 11 11 10 10 10 9 9 8
15 15 15 16 16 16 17 17 16 16 16 15 15 15 15 15 15 15 15 15 15 15 15 14 14 13 13 12 12 11 11 10 10
18 18 18 18 19 19 19 19 19 19 19 18 18 18 17 17 17 17 16 16 16 16 16 16 15 15 14 14 13 13 13 12 12
18 19 19 19 20 20 20 20 20 20 20 20 20 20 21 20 20 20 20 19 19 18 18 17 16 16 15 15 14 13 13 13 13
19 19 20 20 20 21 21 21 21 21 21 22 22 22 22 22 23 23 23 23 22 22 21 20 19 19 18 17 16 15 15 14 13
21 21 21 22 22 22 23 24 25 25 25 25 25 25 25 25 25 25 25 25 25 24 24 24 23 22 21 20 19 18 17 16 15
23 23 24 24 24 25 25 26 26 26 27 28 28 28 29 28 28 28 28 27 27 27 26 26 26 25 24 23 22 21 20 18 17
25 25 26 26 27 27 28 28 29 30 30 31 31 31 31 31 32 31 31 30 30 30 29 29 28 27 26 26 25 24 22 21 20
27 28 28 29 29 30 31 31 32 33 33 34 34 34 34 34 34 34 34 34 33 34 33 32 31 30 28 28 27 26 25 24 23
29 29 30 31 31 32 33 33 34 34 35 36 36 36 37 37 37 36 37 37 37 36 36 36 35 33 32 30 29 28 27 27 26
30 31 31 32 32 33 33 34 34 34 34 35 36 37 38 38 39 40 39 39 39 40 40 39 39 37 35 34 32 31 30 29 28
31 31 31 31 31 32 32 33 33 34 35 36 37 37 38 39 40 41 42 43 42 42 41 42 42 42 40 37 36 34 32 32 31
30 30 30 31 30 31 31 32 32 34 35 35 34 35 35 37 38 40 41 43 44 45 44 44 43 47 44 41 39 36 35 33 32
30 30 30 29 29 28 28 28 28 27 27 28 29 30 30 33 35 37 40 42 44 45 46 46 45 46 44 46 44 40 37 35 33
29 28 27 26 26 25 24 23 23 23 24 24 26 27 28 29 32 35 36 37 40 43 46 47 47 46 45 38 39 41 40 38 35
23 22 21 21 20 19 19 20 20 20 23 24 25 23 26 25 31 33 34 36 37 39 41 44 47 47 45 45 45 37 40 39 38
20 19 17 16 17 17 18 18 19 21 22 22 21 23 24 30 28 33 32 34 34 34 35 38 41 44 45 43 42 42 39 36 38
17 15 14 15 15 15 16 18 19 19 19 20 20 24 27 28 31 29 29 27 28 30 30 31 33 36 40 40 39 37 37 37 32
14 13 13 13 14 15 16 17 18 18 18 20 21 23 25 27 29 28 25 25 23 24 24 23 25 27 31 34 35 34 33 33 32
Wind_Direction
318 310 304 303 305 309 311 312 313 313 312 309 302 293 290 292 290 291 284 281 283 285 279 283 286 288 289 292 294 295 297 298 298
310 308 299 297 297 299 299 299 300 300 301 302 300 293 289 288 287 289 284 276 277 280 278 278 280 281 283 286 289 290 289 288 288
302 301 297 294 293 294 293 293 292 292 292 293 292 291 288 284 284 287 287 278 277 277 276 276 276 276 277 279 281 283 284 283 284
297 296 294 292 291 291 290 289 288 287 287 287 287 286 285 283 281 283 284 279 279 276 274 274 274 274 275 276 277 278 279 279 279
296 296 294 293 291 290 289 288 287 286 286 285 284 283 282 281 279 278 278 279 276 273 272 272 271 272 272 272 274 275 276 277 277
297 296 295 293 291 289 287 287 286 285 285 285 285 283 282 281 279 277 275 274 274 272 270 270 269 269 270 269 270 271 273 274 275
295 295 294 292 291 290 288 287 285 283 282 283 283 282 281 279 278 277 275 274 271 270 268 266 267 268 267 266 267 268 270 271 272
294 293 292 291 290 290 289 287 285 284 283 282 281 280 279 279 278 276 274 272 271 268 267 266 264 265 265 263 264 265 266 267 268
293 293 292 291 290 289 288 287 286 284 284 283 282 280 279 278 277 275 273 270 270 267 266 265 264 263 263 262 261 262 263 264 265
293 292 292 290 290 289 288 287 286 284 284 282 282 280 279 278 276 275 272 270 269 267 264 264 262 262 262 260 260 260 260 261 262
293 292 291 291 291 290 289 288 286 285 284 283 281 280 279 277 276 275 273 270 268 266 264 263 261 260 260 259 258 258 258 259 260
294 293 292 291 291 291 290 289 288 287 286 285 283 281 279 278 276 274 273 271 269 267 263 262 259 258 258 257 257 256 257 258 258
295 294 293 293 293 292 291 291 290 289 288 287 285 283 281 279 277 275 273 270 269 267 264 261 258 256 255 255 256 255 256 256 257
296 295 294 295 294 294 294 293 292 292 291 290 288 286 284 282 280 277 274 272 269 265 263 260 260 257 250 253 253 254 254 256 255
296 295 295 296 296 296 297 296 296 297 297 297 295 293 290 288 285 282 278 274 271 267 263 260 257 254 257 254 250 250 253 254 256
297 295 295 296 297 298 299 300 302 301 303 303 305 302 299 296 293 289 285 280 276 269 264 260 256 255 252 252 248 249 252 252 254
300 300 299 299 300 302 304 305 306 306 309 307 308 309 310 308 304 296 289 284 279 274 267 262 257 253 251 250 251 253 245 251 254
302 302 302 302 303 304 307 310 312 311 313 314 310 314 314 317 313 306 294 288 282 278 272 264 258 253 249 249 250 248 249 249 248
301 301 303 303 305 308 310 314 317 317 317 318 317 316 317 321 323 317 304 296 288 282 277 268 260 252 247 246 246 246 244 247 249
298 300 304 305 308 311 313 316 318 318 318 320 320 322 324 325 328 326 311 305 300 290 280 271 261 255 248 242 241 242 242 243 247